RADUGA-1 4 [-]

Last updated on Jan. 18, 2020, 4:38 a.m. UTC

1 25642U 99010A   20017.16426892  .00000117  00000-0  00000-0 0  9995
2 25642  14.8059  21.6681 0005014 281.1676 267.5302  1.00263468 76450
UTC
Height (km)
Latitude
Longitude
Inclination
Orbital Period
UTC large
Height (km)
Speed (km/s)
/
Latitude / Longitude
Inclination (degrees)
Orbital Period (minutes)
Azimuth
Elevation
Range (km)
Doppler Factor
iOS Compass Heading
iOS Angle

Next 30 passes for location: Hong Kong

Rise time Rise Azimuth (degrees) Set time Set Azimuth (degrees) Duration Max altitude (degrees)

No matching passes for this satellites